Orbital Elements at Epoch 2459200.5 (2020-Dec-17.0) TDB
Reference: JPL 18 (heliocentric ecliptic J2000)
Element | Value | Uncertainty (1-sigma) | Units |
e | .2263806567282637 | 3.8494e-08 | |
a | 3.073868810857832 | 1.8517e-08 | au |
q | 2.378004370759309 | 1.1966e-07 | au |
i | 11.55169589981132 | 4.3861e-06 | deg |
node | 156.5116964089095 | 2.3901e-05 | deg |
peri | 5.772928257678658 | 2.6241e-05 | deg |
M | 125.1269442738792 | 1.0145e-05 | deg |
tp | 2458516.313095461973 (2019-Feb-01.81309546) | 5.4285e-05 | TDB |
period | 1968.459208070884 5.39 | 1.7787e-05 4.87e-08 | d yr |
n | .182884155548646 | 1.6525e-09 | deg/d |
Q | 3.769733250956354 | 2.2709e-08 | au |
|
| | Orbit Determination Parameters
Additional Information
|